Wind_Speed
39 39 39 39 39 39 38 38 37 37 37 36 35 34 33 32 32 33 34 35 36 36 36 35 35 34 33 32 31 29 28 27 26 25 25 25 25 25 27 28 29 31 31
43 42 42 41 41 40 40 39 37 37 37 36 35 33 31 30 30 30 30 31 31 31 32 32 31 31 30 28 27 26 25 25 25 25 24 25 24 24 24 24 26 28 30
48 46 45 45 44 42 41 39 38 37 37 36 34 32 30 28 27 26 26 26 27 27 27 27 27 26 26 25 24 24 24 25 25 25 25 24 24 22 22 22 22 24 25
53 51 49 47 46 44 42 40 38 37 36 35 34 32 29 27 26 24 22 21 21 21 21 22 23 23 24 25 24 23 24 23 23 22 23 23 22 21 21 21 20 21 22
56 54 52 50 48 46 43 41 40 37 36 34 33 31 28 26 25 23 21 19 19 18 19 20 21 22 24 24 23 23 22 21 21 21 21 20 19 19 19 19 19 20 21
61 60 58 55 52 49 46 43 41 38 36 33 32 30 27 26 24 22 20 18 16 16 17 18 20 21 22 22 21 21 20 20 21 20 19 18 17 17 17 18 18 19 20
68 67 64 60 56 52 48 45 42 39 36 33 31 29 27 25 23 20 19 17 16 15 16 17 19 20 20 20 19 18 18 18 18 17 16 15 15 16 16 16 16 17 19
75 72 69 65 60 56 52 48 44 40 37 34 31 29 26 24 22 20 18 16 15 13 12 12 13 15 16 16 15 15 16 16 16 14 13 13 14 13 13 13 14 15 17
77 74 70 67 63 58 54 50 46 42 39 34 31 29 26 23 21 19 17 14 12 11 11 10 10 11 12 13 13 14 13 12 12 11 10 10 10 10 11 12 13 14 15
72 69 65 62 59 56 53 49 46 42 40 36 32 29 25 22 20 18 15 12 10 8 8 9 10 11 12 12 11 11 11 10 10 9 9 9 9 9 9 10 11 12 14
59 57 55 53 53 52 51 49 46 43 40 37 33 29 26 22 19 17 14 11 10 10 9 9 10 10 11 11 11 10 10 10 9 8 8 7 7 7 7 8 9 10 12
46 44 42 42 44 46 47 47 46 44 41 37 33 30 26 23 20 17 14 12 12 12 12 11 11 11 11 11 11 10 10 9 8 7 7 6 5 5 5 6 7 9 11
38 37 38 38 39 41 44 46 45 44 42 38 34 31 27 24 21 18 16 15 14 14 13 12 12 12 11 11 10 9 8 8 7 6 5 4 4 3 3 4 6 8 10
36 35 35 35 35 36 39 44 46 45 42 38 34 31 27 24 22 20 19 18 17 16 15 14 13 12 11 10 9 8 8 8 7 6 5 4 3 2 2 3 6 8 11
35 34 34 33 33 33 35 42 46 46 42 39 36 32 28 25 24 22 21 20 19 18 16 15 13 12 11 10 9 9 9 8 7 6 5 4 3 1 2 4 6 9 12
36 34 34 32 30 28 32 39 45 46 42 39 36 33 30 28 26 24 23 22 21 19 17 15 13 12 11 11 10 10 10 9 9 7 6 5 3 2 3 5 7 10 13
37 35 33 30 28 25 29 37 44 45 41 39 38 35 32 30 27 26 25 24 22 20 17 15 13 12 12 11 11 11 11 10 10 8 7 5 4 3 4 5 8 11 13
37 33 30 27 25 23 27 35 40 43 42 41 39 37 34 31 29 27 26 24 22 20 17 16 14 13 12 12 12 12 12 12 10 9 8 7 6 5 6 7 9 12 15
33 30 26 24 22 22 28 34 39 42 41 41 40 38 36 33 31 29 26 24 22 20 18 16 14 14 13 13 13 13 13 13 11 10 10 9 8 8 9 10 11 13 16
28 25 23 21 21 24 30 34 39 41 40 41 41 39 36 33 30 28 26 24 22 20 17 16 15 14 14 14 14 14 14 14 13 12 11 11 11 11 12 13 14 15 17
24 21 20 19 22 25 31 34 39 39 41 41 40 39 36 33 30 29 27 25 22 20 17 16 15 15 15 15 15 15 15 15 14 14 13 13 13 13 14 15 16 17 18
21 19 18 19 23 27 33 37 40 40 41 41 41 40 37 34 32 30 28 25 22 19 17 16 15 15 15 15 15 15 15 15 16 15 15 15 16 16 17 18 18 18 19
17 17 19 20 25 29 34 37 39 39 39 39 40 38 36 33 31 29 26 23 21 18 16 15 15 15 15 15 15 14 15 15 15 16 17 17 18 18 19 20 19 20 21
16 19 21 23 27 31 35 37 38 37 38 40 39 37 35 32 30 28 26 23 21 18 16 15 15 15 14 14 14 14 14 14 15 16 17 18 18 19 20 20 21 21 23
18 22 25 27 30 34 37 38 38 38 39 39 38 36 34 31 29 27 25 22 19 16 15 15 15 14 14 13 14 14 14 15 15 16 17 18 19 20 21 21 22 23 24
23 26 28 30 33 35 37 38 38 38 38 37 36 35 32 29 27 25 22 19 17 15 14 14 14 14 14 14 14 14 14 15 16 17 17 18 19 21 22 22 23 24 26
Wind_Direction
303 305 305 306 307 309 311 314 315 317 317 315 312 306 300 292 286 282 278 274 272 269 267 265 264 263 262 262 260 257 255 252 249 245 243 246 253 255 254 252 251 247 242
303 303 304 304 305 306 308 309 312 314 315 315 314 310 304 297 293 287 282 277 273 269 264 262 260 259 256 255 252 249 246 242 239 237 241 245 249 253 253 253 250 247 244
301 302 302 302 302 303 304 305 307 310 312 314 313 312 308 303 300 294 288 281 273 267 262 258 256 253 250 246 243 241 237 237 236 236 240 242 245 246 249 250 249 248 247
298 298 298 299 299 299 299 300 302 304 307 310 311 310 308 304 303 299 293 286 276 266 259 254 250 246 242 240 239 236 231 231 233 236 240 242 243 245 245 245 247 248 250
295 295 294 295 295 295 294 295 297 299 302 304 306 307 306 305 303 299 296 288 277 267 256 251 247 241 240 236 234 229 226 231 232 235 237 238 240 241 243 245 248 251 254
291 293 292 291 291 290 290 289 291 293 295 298 301 301 301 303 302 298 293 288 277 265 256 251 244 240 238 234 232 229 228 230 231 234 234 238 239 241 245 249 252 255 258
288 289 288 287 286 285 284 283 284 286 287 290 293 295 295 296 296 294 289 283 277 266 260 254 248 240 235 235 233 232 232 230 229 231 232 235 239 243 248 252 256 259 263
285 286 285 284 282 280 278 277 277 277 278 281 285 286 287 289 290 289 286 281 273 265 259 249 239 236 235 231 230 229 225 223 221 224 229 235 240 244 248 254 260 264 268
284 284 282 280 278 275 272 270 269 269 269 271 275 277 278 280 283 284 282 276 267 259 247 237 229 225 221 216 213 211 210 213 215 217 223 227 232 241 250 257 263 269 275
284 282 280 277 274 270 265 261 259 259 259 261 265 267 268 270 273 274 274 264 252 239 225 216 207 202 197 196 197 199 200 202 205 209 215 224 234 244 253 263 271 279 285
284 283 280 275 270 264 257 251 248 247 249 251 255 256 257 259 260 263 257 242 224 208 197 190 185 182 181 182 185 187 189 193 199 205 213 224 237 249 261 272 283 292 298
286 284 281 278 272 262 251 243 239 236 239 242 245 246 247 248 248 247 237 218 203 191 185 183 184 184 183 183 184 186 189 194 197 202 212 225 240 257 272 288 303 311 316
287 286 283 280 278 266 249 236 230 228 229 234 237 237 237 237 236 233 221 206 196 188 186 186 186 185 184 184 187 191 193 194 197 202 208 219 239 258 277 308 325 330 333
290 288 286 282 279 269 249 232 222 218 222 226 228 228 227 226 225 221 211 202 194 189 187 187 185 184 186 189 193 195 195 197 199 202 206 214 229 245 298 331 338 340 343
291 289 288 284 279 270 248 227 217 212 215 219 218 218 218 217 216 212 205 199 194 193 192 191 190 192 195 198 201 202 202 203 204 204 208 213 218 241 318 338 346 349 351
291 290 288 284 278 265 241 223 213 209 210 211 207 207 208 210 210 207 203 199 196 195 195 196 197 200 204 206 209 208 208 208 206 206 207 211 222 259 315 338 348 351 353
290 288 286 281 272 258 234 218 210 206 205 202 202 201 203 206 206 204 201 199 198 198 199 201 204 208 211 214 214 212 210 210 208 209 211 219 235 267 303 328 340 345 349
287 285 281 274 264 245 225 214 207 204 200 197 197 197 199 201 202 202 200 199 199 200 203 207 211 214 217 218 217 214 213 212 212 215 221 232 247 269 292 311 325 335 340
284 281 273 265 252 229 215 207 202 199 196 195 193 194 197 198 199 198 196 197 200 203 206 211 216 219 221 221 218 217 217 216 219 225 234 245 256 271 287 302 315 325 332
281 273 263 252 235 216 207 201 196 195 194 190 188 191 194 195 194 193 194 197 201 205 210 216 220 223 223 223 220 220 221 222 226 235 246 256 264 274 286 297 307 314 322
272 264 251 236 217 206 200 195 191 191 189 186 186 188 190 190 191 192 194 197 202 207 213 219 223 225 226 225 223 224 226 229 234 242 252 262 270 277 287 295 301 307 314
259 248 233 214 202 198 193 190 188 187 187 185 185 186 187 189 191 193 194 197 202 208 214 220 224 227 228 227 226 228 232 236 242 249 257 265 273 280 287 294 299 304 309
240 222 207 195 190 188 186 185 182 182 183 183 183 184 185 188 191 193 195 198 202 207 215 220 224 228 230 230 230 233 237 242 248 254 261 268 276 282 288 294 298 301 306
213 196 189 184 180 181 181 180 180 181 181 181 182 183 183 186 189 192 195 198 203 210 217 222 224 227 230 232 233 236 242 248 254 259 264 271 277 283 288 292 296 300 305
185 178 177 175 174 176 177 177 177 177 177 179 181 182 183 185 188 192 195 200 206 213 220 224 226 228 232 234 235 240 246 252 259 264 269 274 279 284 287 291 295 299 303
168 168 169 169 170 171 172 173 173 174 174 177 179 181 182 186 188 192 195 201 208 217 223 225 226 229 232 235 239 244 250 257 262 267 272 276 281 285 288 290 294 298 301
Height
5777 5774 5770 5766 5762 5759 5754 5750 5745 5741 5736 5731 5726 5722 5719 5715 5713 5711 5710 5710 5709 5709 5710 5711 5712 5713 5714 5716 5718 5719 5721 5723 5725 5727 5729 5731 5733 5735 5736 5738 5739 5741 5744
5766 5763 5760 5756 5753 5749 5746 5741 5737 5733 5728 5723 5719 5715 5711 5708 5705 5702 5701 5700 5699 5699 5699 5700 5701 5703 5705 5707 5709 5711 5713 5715 5718 5720 5722 5725 5727 5728 5729 5731 5733 5735 5737
5754 5752 5749 5746 5743 5739 5736 5733 5729 5725 5720 5716 5712 5708 5704 5701 5697 5694 5692 5691 5690 5690 5690 5691 5693 5695 5697 5699 5701 5704 5706 5709 5711 5714 5716 5718 5720 5721 5723 5725 5727 5729 5731
5741 5739 5737 5734 5732 5729 5726 5723 5720 5716 5713 5709 5705 5701 5698 5694 5691 5688 5686 5684 5683 5682 5683 5684 5685 5687 5690 5692 5694 5697 5699 5703 5705 5708 5710 5712 5713 5715 5717 5719 5721 5723 5725
5727 5725 5724 5722 5720 5718 5716 5713 5711 5708 5705 5701 5698 5695 5691 5688 5685 5683 5681 5678 5677 5676 5677 5678 5679 5681 5683 5686 5688 5691 5693 5696 5699 5701 5704 5706 5708 5710 5712 5714 5715 5717 5719
5712 5710 5709 5707 5706 5705 5704 5702 5700 5698 5696 5693 5691 5688 5685 5682 5680 5677 5675 5674 5672 5672 5672 5673 5674 5676 5678 5680 5683 5685 5688 5691 5693 5696 5698 5701 5703 5705 5707 5708 5710 5712 5713
5694 5692 5691 5691 5691 5690 5690 5690 5689 5688 5686 5685 5683 5681 5679 5676 5674 5672 5670 5669 5668 5667 5668 5668 5669 5670 5673 5675 5678 5680 5683 5686 5688 5691 5694 5696 5698 5700 5702 5703 5705 5706 5707
5673 5671 5670 5671 5672 5673 5674 5675 5675 5676 5675 5675 5674 5673 5672 5670 5668 5667 5665 5664 5663 5663 5663 5664 5665 5667 5669 5671 5673 5676 5679 5682 5684 5687 5689 5692 5694 5696 5697 5699 5700 5701 5701
5650 5648 5647 5648 5650 5652 5655 5657 5660 5662 5663 5664 5664 5664 5664 5663 5662 5661 5660 5659 5658 5658 5659 5660 5662 5663 5665 5667 5670 5673 5676 5678 5681 5684 5686 5688 5690 5692 5693 5694 5695 5696 5696
5624 5623 5623 5623 5626 5629 5634 5638 5642 5646 5649 5651 5654 5655 5656 5656 5656 5656 5655 5654 5654 5655 5656 5657 5659 5661 5663 5665 5668 5671 5674 5676 5679 5681 5683 5685 5687 5688 5689 5690 5691 5691 5690
5600 5600 5599 5600 5602 5606 5611 5617 5624 5630 5634 5638 5642 5645 5647 5648 5649 5650 5650 5651 5651 5652 5654 5656 5657 5659 5662 5664 5667 5669 5672 5675 5677 5679 5681 5683 5684 5685 5686 5686 5686 5686 5685
5579 5579 5579 5579 5580 5583 5588 5596 5604 5612 5619 5625 5630 5634 5638 5640 5643 5644 5645 5647 5648 5650 5652 5654 5656 5658 5661 5663 5666 5668 5671 5673 5675 5677 5678 5680 5681 5681 5682 5682 5682 5681 5680
5564 5563 5562 5562 5562 5563 5568 5576 5585 5594 5603 5611 5618 5624 5628 5632 5635 5638 5640 5643 5645 5647 5649 5652 5654 5657 5660 5662 5665 5667 5669 5671 5673 5675 5676 5677 5678 5678 5679 5678 5678 5677 5675
5550 5549 5548 5547 5547 5546 5550 5558 5567 5578 5588 5598 5607 5614 5619 5624 5628 5632 5635 5638 5641 5644 5647 5650 5652 5655 5658 5660 5663 5665 5667 5669 5671 5672 5674 5675 5675 5676 5676 5675 5674 5673 5671
5538 5536 5535 5534 5533 5533 5536 5542 5552 5562 5574 5585 5596 5604 5611 5617 5622 5626 5630 5634 5638 5641 5644 5647 5650 5653 5656 5658 5660 5663 5665 5667 5668 5670 5671 5672 5673 5673 5673 5672 5671 5669 5667
5526 5525 5523 5522 5521 5521 5523 5530 5539 5550 5562 5573 5584 5594 5603 5609 5615 5620 5626 5630 5634 5638 5641 5644 5647 5650 5653 5656 5658 5660 5662 5664 5666 5667 5668 5669 5670 5670 5670 5669 5668 5666 5664
5514 5513 5511 5510 5510 5511 5514 5521 5530 5541 5551 5564 5575 5585 5594 5602 5609 5615 5621 5626 5630 5634 5638 5641 5644 5647 5650 5653 5655 5657 5659 5661 5663 5664 5666 5667 5667 5667 5667 5666 5665 5663 5661
5501 5500 5500 5500 5500 5502 5507 5513 5522 5533 5544 5556 5567 5578 5587 5596 5604 5610 5616 5622 5627 5631 5635 5638 5641 5644 5647 5649 5652 5654 5656 5658 5660 5661 5663 5664 5664 5664 5663 5663 5661 5660 5657
5488 5488 5489 5490 5492 5495 5501 5508 5517 5527 5538 5550 5561 5572 5581 5590 5598 5605 5612 5618 5623 5627 5631 5635 5638 5641 5643 5646 5648 5651 5653 5655 5657 5658 5659 5660 5660 5660 5660 5659 5657 5656 5653
5476 5477 5479 5481 5484 5490 5497 5504 5513 5524 5534 5546 5557 5568 5577 5586 5594 5602 5609 5614 5619 5624 5628 5631 5634 5637 5640 5642 5645 5647 5649 5651 5653 5654 5656 5656 5656 5656 5655 5654 5653 5651 5649
5465 5467 5470 5474 5479 5485 5493 5501 5511 5521 5531 5543 5553 5564 5575 5584 5592 5598 5605 5611 5616 5620 5624 5628 5631 5634 5636 5639 5641 5643 5645 5647 5649 5650 5651 5652 5652 5651 5650 5649 5648 5646 5644
5455 5459 5463 5468 5475 5482 5491 5499 5509 5519 5529 5540 5550 5561 5570 5579 5588 5595 5601 5607 5612 5617 5621 5624 5627 5630 5632 5635 5637 5639 5641 5643 5644 5646 5646 5647 5647 5646 5645 5644 5643 5641 5639
5447 5452 5458 5464 5472 5480 5490 5499 5509 5519 5529 5539 5549 5559 5568 5577 5586 5593 5599 5605 5610 5614 5618 5621 5623 5626 5628 5630 5633 5635 5636 5638 5639 5641 5641 5641 5641 5641 5640 5638 5637 5635 5633
5441 5448 5455 5463 5471 5480 5490 5499 5509 5519 5529 5539 5549 5559 5567 5576 5584 5591 5597 5602 5607 5611 5614 5617 5620 5622 5624 5626 5628 5630 5632 5633 5634 5635 5636 5636 5635 5635 5634 5632 5631 5629 5627
5438 5446 5454 5463 5472 5481 5491 5501 5510 5520 5530 5539 5549 5558 5567 5575 5582 5589 5595 5600 5604 5608 5611 5614 5616 5618 5620 5622 5624 5626 5627 5628 5629 5630 5630 5630 5629 5628 5627 5626 5624 5622 5620
5439 5447 5456 5465 5474 5484 5493 5503 5512 5522 5531 5541 5550 5558 5566 5574 5581 5587 5593 5597 5601 5605 5607 5610 5612 5615 5617 5618 5620 5621 5623 5624 5624 5624 5624 5624 5623 5622 5621 5619 5618 5615 5613